| time (UTC) | temp F | wind direction | speed MPH | gust MPH | rain 1hr in | rain 24hr in | rain mn in | humidity % | barometer mb |
| 20260902210037 | 99 | 219 | 6.0 | 13.0 | 0.00 | 0.00 | 0.00 | 40 | 1012.0 |
| 20260902203039 | 100 | 156 | 2.0 | 14.0 | 0.00 | 0.00 | 0.00 | 39 | 1012.5 |
| 20260902201544 | 98 | 218 | 8.0 | 15.0 | 0.00 | 0.00 | 0.00 | 41 | 1012.6 |
| 20260902200037 | 98 | 150 | 6.0 | 14.0 | 0.00 | 0.00 | 0.00 | 41 | 1012.8 |
| 20260902194536 | 99 | 159 | 4.0 | 14.0 | 0.00 | 0.00 | 0.00 | 41 | 1013.0 |
| 20260902193043 | 98 | 105 | 3.0 | 16.0 | 0.00 | 0.00 | 0.00 | 42 | 1013.3 |
| 20260902191536 | 97 | 138 | 6.0 | 12.0 | 0.00 | 0.00 | 0.00 | 44 | 1013.5 |
| 20260902183039 | 97 | 133 | 5.0 | 14.0 | 0.00 | 0.00 | 0.00 | 44 | 1014.2 |
| 20260902181536 | 96 | 211 | 4.0 | 9.0 | 0.00 | 0.00 | 0.00 | 45 | 1014.6 |
| 20260902180032 | 96 | 258 | 4.0 | 12.0 | 0.00 | 0.00 | 0.00 | 45 | 1015.2 |
| 20260902173035 | 94 | 173 | 3.0 | 12.0 | 0.00 | 0.00 | 0.00 | 50 | 1015.6 |
| 20260902171547 | 93 | 216 | 4.0 | 11.0 | 0.00 | 0.00 | 0.00 | 54 | 1015.9 |
| 20260902170034 | 93 | 279 | 5.0 | 9.0 | 0.00 | 0.00 | 0.00 | 52 | 1016.1 |
| 20260902133034 | 81 | 238 | 3.0 | 8.0 | 0.00 | 0.00 | 0.00 | 71 | 1016.4 |
| 20260902131541 | 80 | 300 | 4.0 | 8.0 | 0.00 | 0.00 | 0.00 | 72 | 1016.3 |
| 20260902130035 | 79 | 283 | 2.0 | 6.0 | 0.00 | 0.00 | 0.00 | 76 | 1016.3 |
| 20260902123042 | 77 | 244 | 1.0 | 4.0 | 0.00 | 0.00 | 0.00 | 77 | 1016.0 |
| 20260902121534 | 77 | 0 | 0.0 | 3.0 | 0.00 | 0.00 | 0.00 | 76 | 1015.9 |
| 20260902120032 | 78 | 236 | 0.0 | 3.0 | 0.00 | 0.00 | 0.00 | 76 | 1015.8 |
| 20260902114540 | 78 | 0 | 1.0 | 4.0 | 0.00 | 0.00 | 0.00 | 76 | 1015.9 |
| 20260902113037 | 78 | 234 | 0.0 | 2.0 | 0.00 | 0.00 | 0.00 | 75 | 1016.0 |
| 20260902111535 | 78 | 0 | 0.0 | 0.0 | 0.00 | 0.00 | 0.00 | 75 | 1016.0 |
| 20260902110042 | 79 | 0 | 0.0 | 0.0 | 0.00 | 0.00 | 0.00 | 74 | 1015.9 |
| 20260902104532 | 79 | 0 | 0.0 | 0.0 | 0.00 | 0.00 | 0.00 | 74 | 1015.8 |
| 20260902103034 | 79 | 0 | 0.0 | 2.0 | 0.00 | 0.00 | 0.00 | 73 | 1015.7 |
| 20260902100033 | 80 | 0 | 0.0 | 0.0 | 0.00 | 0.00 | 0.00 | 71 | 1015.8 |
| 20260902094535 | 80 | 0 | 0.0 | 0.0 | 0.00 | 0.00 | 0.00 | 70 | 1015.8 |
| 20260902090036 | 81 | 0 | 0.0 | 0.0 | 0.00 | 0.00 | 0.00 | 68 | 1015.5 |
| 20260902084535 | 82 | 0 | 0.0 | 0.0 | 0.00 | 0.00 | 0.00 | 67 | 1015.4 |
| 20260902083033 | 82 | 0 | 0.0 | 0.0 | 0.00 | 0.00 | 0.00 | 67 | 1015.5 |
| 20260902080037 | 83 | 0 | 1.0 | 3.0 | 0.00 | 0.00 | 0.00 | 66 | 1015.6 |
| 20260902074534 | 83 | 284 | 2.0 | 4.0 | 0.00 | 0.00 | 0.00 | 66 | 1015.5 |
| 20260902064534 | 84 | 311 | 3.0 | 8.0 | 0.00 | 0.00 | 0.00 | 64 | 1015.6 |
| 20260902061552 | 85 | 286 | 3.0 | 8.0 | 0.00 | 0.00 | 0.00 | 63 | 1015.6 |
| 20260902051533 | 86 | 319 | 2.0 | 6.0 | 0.00 | 0.00 | 0.00 | 63 | 1015.4 |
| 20260902043033 | 87 | 263 | 4.0 | 8.0 | 0.00 | 0.00 | 0.00 | 60 | 1015.3 |
| 20260902041539 | 88 | 295 | 3.0 | 12.0 | 0.00 | 0.00 | 0.00 | 58 | 1015.1 |
| 20260902031538 | 90 | 257 | 1.0 | 5.0 | 0.00 | 0.00 | 0.00 | 52 | 1014.6 |
| 20260902030035 | 91 | 275 | 2.0 | 6.0 | 0.00 | 0.00 | 0.00 | 51 | 1014.4 |
| 20260902023038 | 91 | 0 | 1.0 | 4.0 | 0.00 | 0.00 | 0.00 | 51 | 1014.0 |
| 20260902021535 | 92 | 290 | 2.0 | 6.0 | 0.00 | 0.00 | 0.00 | 51 | 1013.8 |
| 20260902020034 | 92 | 0 | 1.0 | 6.0 | 0.00 | 0.00 | 0.00 | 51 | 1013.6 |
| 20260902013034 | 93 | 282 | 2.0 | 7.0 | 0.00 | 0.00 | 0.00 | 49 | 1013.1 |
| 20260902011535 | 94 | 278 | 3.0 | 8.0 | 0.00 | 0.00 | 0.00 | 48 | 1013.1 |
| 20260902010034 | 95 | 286 | 2.0 | 4.0 | 0.00 | 0.00 | 0.00 | 44 | 1012.9 |
| 20260902004536 | 95 | 275 | 1.0 | 4.0 | 0.00 | 0.00 | 0.00 | 44 | 1012.8 |
| 20260902001553 | 96 | 310 | 1.0 | 4.0 | 0.00 | 0.00 | 0.00 | 43 | 1013.0 |
| 20260902000037 | 96 | 301 | 2.0 | 8.0 | 0.00 | 0.00 | 0.00 | 42 | 1013.1 |
| 20260901234533 | 97 | 261 | 4.0 | 10.0 | 0.00 | 0.00 | 0.00 | 41 | 1013.2 |
| 20260901231538 | 97 | 279 | 3.0 | 10.0 | 0.00 | 0.00 | 0.00 | 41 | 1013.4 |
| 20260901230038 | 97 | 264 | 2.0 | 8.0 | 0.00 | 0.00 | 0.00 | 41 | 1013.4 |
| 20260901224533 | 96 | 289 | 4.0 | 10.0 | 0.00 | 0.00 | 0.00 | 42 | 1013.4 |
| 20260901223041 | 97 | 285 | 3.0 | 8.0 | 0.00 | 0.00 | 0.00 | 41 | 1013.6 |
| 20260901221540 | 97 | 246 | 4.0 | 11.0 | 0.00 | 0.00 | 0.00 | 40 | 1013.5 |
| 20260901220033 | 98 | 297 | 5.0 | 10.0 | 0.00 | 0.00 | 0.00 | 40 | 1013.5 |
| 20260901214534 | 100 | 315 | 5.0 | 12.0 | 0.00 | 0.00 | 0.00 | 38 | 1013.7 |
| 20260901213033 | 101 | 307 | 4.0 | 11.0 | 0.00 | 0.00 | 0.00 | 37 | 1013.7 |
| 20260901211535 | 101 | 280 | 2.0 | 11.0 | 0.00 | 0.00 | 0.00 | 36 | 1013.8 |